Location: *
(47.2969°N, 10.2930°E)
Time: 10:23:25
(UTC+00:00)

STARLINK-1191 - Pass Details

Date: 09 April 2020
Orbit: 375 x 384 km, 53.0° (Epoch: 26 May)

Event Time Altitude Azimuth Distance (km) Brightness Sun altitude
Rises 18:20:06 0° 298° (WNW) 2,270 9.0 -4.1°
Reaches altitude 10° 18:22:12 10° 304° (NW) 1,415 7.2 -4.5°
Maximum altitude 18:25:16 46° 19° (NNE) 532 3.6 -5.0°
Drops below altitude 10° 18:28:20 10° 95° (E) 1,412 5.1 -5.4°
Enters shadow 18:28:54 - 98° (E) 1,640 5.4 -5.5°
